This is the latest recevied weather packets stored in our database for station/object NR0A-4. If no packets are shown the sender has not sent any weather packets the latest 10 day(s).
| Time | Temp. | Humidity | Pressure | Rain* | Wind** | Luminosity | Snow |
|---|---|---|---|---|---|---|---|
| 1778077804 | 9.44° C | 43% | 1018.8 hPa | 0 mm | - | 513 W/m² | - |
| 1778077504 | 9.44° C | 45% | 1018.7 hPa | 0 mm | - | 497 W/m² | - |
| 1778077204 | 8.89° C | 43% | 1018.7 hPa | 0 mm | - | 487 W/m² | - |
| 1778076904 | 8.89° C | 43% | 1018.7 hPa | 0 mm | - | 473 W/m² | - |
| 1778076604 | 8.89° C | 45% | 1018.7 hPa | 0 mm | - | 454 W/m² | - |
| 1778076304 | 8.89° C | 46% | 1018.7 hPa | 0 mm | - | 443 W/m² | - |
| 1778076004 | 8.33° C | 47% | 1018.7 hPa | 0 mm | - | 425 W/m² | - |
| 1778075704 | 7.78° C | 48% | 1018.7 hPa | 0 mm | - | 410 W/m² | - |
| 1778075404 | 7.78° C | 53% | 1018.7 hPa | 0 mm | - | 394 W/m² | - |
| 1778075104 | 7.22° C | 52% | 1018.7 hPa | 0 mm | - | 378 W/m² | - |
| 1778074804 | 6.11° C | 58% | 1018.7 hPa | 0 mm | - | 364 W/m² | - |
| 1778074504 | 5.56° C | 61% | 1018.7 hPa | 0 mm | - | 341 W/m² | - |
| 1778074204 | 5° C | 63% | 1018.6 hPa | 0 mm | - | 267 W/m² | - |
| 1778073904 | 4.44° C | 64% | 1018.7 hPa | 0 mm | - | 264 W/m² | - |
| 1778073604 | 3.89° C | 66% | 1018.7 hPa | 0 mm | - | 243 W/m² | - |
| 1778073304 | 3.33° C | 68% | 1018.6 hPa | 0 mm | - | 241 W/m² | - |
| 1778073005 | 2.78° C | 69% | 1018.5 hPa | 0 mm | - | 258 W/m² | - |
| 1778072704 | 2.22° C | 70% | 1018.5 hPa | 0 mm | - | 241 W/m² | - |
| 1778072404 | 2.22° C | 71% | 1018.5 hPa | 0 mm | - | 62 W/m² | - |
| 1778072104 | 1.67° C | 70% | 1018.4 hPa | 0 mm | - | 37 W/m² | - |
| 1778071805 | 1.67° C | 70% | 1018.4 hPa | 0 mm | - | 37 W/m² | - |
| 1778071504 | 1.11° C | 70% | 1018.3 hPa | 0 mm | - | 84 W/m² | - |
| 1778071204 | 1.11° C | 70% | 1018.1 hPa | 0 mm | - | 37 W/m² | - |
| 1778070904 | 0.56° C | 71% | 1018.1 hPa | 0 mm | - | 44 W/m² | - |
| 1778070604 | 0.56° C | 71% | 1018 hPa | 0 mm | - | 26 W/m² | - |
* Rain latest hour (hover to see other rain measurements)
** Current wind speed in m/s (hover to see current wind gust speed)